Slayton, MN

2:08 PM CDT on March 23, 2017 (GMT -0500)
Slayton

Weather History for KDVP - April, 2013

Change the Weather History Date:

Wednesday, April 3, 2013

  Actual Average (KOTG) Record (KOTG)
Temperature  
Mean Temperature 39 °F -  
Max Temperature 55 °F 45 °F 78 °F (1981)
Min Temperature 23 °F 28 °F 5 °F (1975)
Degree Days  
Heating Degree Days 26    
Moisture  
Dew Point 26 °F    
Average Humidity 64    
Maximum Humidity 92    
Minimum Humidity 37    
Precipitation  
Precipitation 0.00 in - - ()
Sea Level Pressure  
Sea Level Pressure 30.20 in    
Wind  
Wind Speed 12 mph (SSE)    
Max Wind Speed 26 mph    
Max Gust Speed 38 mph    
Visibility 10 miles    
Events      
Averages and records for this station are not official NWS values.
T = Trace of Precipitation, MM = Missing Value Source: NWS Daily Summary

Daily Weather History Graph

Daily Weather History Graph

Search for Another Location

Airport or City:

Trip Planner

Search our weather history database for the weather conditions in past years. The results will help you decide how hot, cold, wet, or windy it might be!

Date:

Astronomy

Apr. 03, 2013 Rise Set
Actual Time 7:00 AM CDT 7:52 PM CDT
Civil Twilight 6:31 AM CDT 8:22 PM CDT
Nautical Twilight 5:56 AM CDT 8:57 PM CDT
Astronomical Twilight 5:20 AM CDT 9:33 PM CDT
Moon 2:55 AM CDT (4/3) 12:53 PM CDT (4/3)
Length of Visible Light 13h 51m
Length of Day
12h 52m
Last Quarter, 44% of the Moon is Illuminated
Apr 3
Last Quarter
Apr 10
New
Apr 18
First Quarter
Apr 25
Full
May 2
Last Quarter

Hourly Weather History & Observations

Time (CDT) Temp. Windchill Dew Point Humidity Pressure Visibility Wind Dir Wind Speed Gust Speed Precip Events Conditions
12:15 AM 27.0 °F 23.0 °F 21.6 °F 80% 30.32 in 10.0 mi ESE 3.5 mph - N/A   Clear
12:34 AM 26.6 °F 21.2 °F 21.2 °F 80% 30.32 in 10.0 mi ESE 4.6 mph - N/A   Clear
12:55 AM 26.1 °F 21.9 °F 21.9 °F 84% 30.32 in 10.0 mi ESE 3.5 mph - N/A   Clear
1:15 AM 26.2 °F 22.1 °F 21.2 °F 81% 30.32 in 10.0 mi ESE 3.5 mph - N/A   Clear
1:35 AM 26.1 °F 19.4 °F 21.0 °F 81% 30.32 in 10.0 mi ESE 5.8 mph - N/A   Clear
1:55 AM 26.1 °F 19.4 °F 21.0 °F 81% 30.32 in 10.0 mi ESE 5.8 mph - N/A   Clear
2:16 AM 26.1 °F 19.4 °F 20.7 °F 80% 30.32 in 10.0 mi ESE 5.8 mph - N/A   Clear
2:35 AM 25.7 °F 18.0 °F 21.0 °F 82% 30.32 in 10.0 mi ESE 6.9 mph - N/A   Clear
2:55 AM 25.2 °F 17.3 °F 21.4 °F 86% 30.32 in 10.0 mi SE 6.9 mph - N/A   Clear
3:15 AM 24.3 °F 16.3 °F 21.2 °F 88% 30.32 in 10.0 mi SE 6.9 mph - N/A   Clear
3:35 AM 24.3 °F 16.3 °F 21.2 °F 88% 30.32 in 10.0 mi SE 6.9 mph - N/A   Clear
3:55 AM 23.9 °F 16.8 °F 21.2 °F 89% 30.32 in 10.0 mi SE 5.8 mph - N/A   Clear
4:14 AM 23.2 °F 16.0 °F 21.2 °F 92% 30.31 in 10.0 mi SE 5.8 mph - N/A   Clear
4:35 AM 23.2 °F 16.0 °F 21.0 °F 91% 30.31 in 10.0 mi SE 5.8 mph - N/A   Clear
4:55 AM 23.9 °F 13.5 °F 20.3 °F 86% 30.32 in 10.0 mi SSE 10.4 mph - N/A   Clear
5:15 AM 23.7 °F 14.0 °F 20.7 °F 88% 30.31 in 10.0 mi SE 9.2 mph - N/A   Clear
5:35 AM 23.7 °F 14.7 °F 20.3 °F 87% 30.30 in 10.0 mi SSE 8.1 mph - N/A   Clear
5:55 AM 23.9 °F 15.0 °F 20.3 °F 86% 30.30 in 10.0 mi SE 8.1 mph - N/A   Clear
6:15 AM 23.7 °F 14.7 °F 20.3 °F 87% 30.30 in 10.0 mi SE 8.1 mph - N/A   Clear
6:35 AM 23.5 °F 15.4 °F 20.3 °F 87% 30.30 in 10.0 mi SSE 6.9 mph - N/A   Clear
6:55 AM 23.5 °F 13.7 °F 20.3 °F 87% 30.30 in 10.0 mi SSE 9.2 mph - N/A   Clear
7:14 AM 23.5 °F 13.7 °F 20.1 °F 87% 30.30 in 10.0 mi SSE 9.2 mph - N/A   Clear
7:35 AM 24.1 °F 14.4 °F 20.8 °F 87% 30.30 in 10.0 mi SE 9.2 mph - N/A   Clear
7:55 AM 25.5 °F 15.5 °F 21.4 °F 84% 30.30 in 10.0 mi SSE 10.4 mph - N/A   Clear
8:15 AM 27.0 °F 17.3 °F 22.5 °F 83% 30.29 in 10.0 mi SSE 10.4 mph - N/A   Clear
8:35 AM 28.9 °F 18.6 °F 23.9 °F 81% 30.29 in 10.0 mi SSE 12.7 mph - N/A   Clear
8:55 AM 31.3 °F 20.3 °F 25.0 °F 77% 30.29 in 10.0 mi SSE 16.1 mph 20.7 mph N/A   Clear
9:15 AM 32.7 °F 21.4 °F 25.5 °F 75% 30.28 in 10.0 mi SSE 18.4 mph 23.0 mph N/A   Clear
9:35 AM 34.0 °F 22.7 °F 25.9 °F 72% 30.27 in 10.0 mi SSE 19.6 mph - N/A   Clear
9:55 AM 35.2 °F 24.1 °F 25.9 °F 69% 30.26 in 10.0 mi SSE 20.7 mph 25.3 mph N/A   Clear
10:15 AM 36.5 °F 25.7 °F 25.5 °F 64% 30.25 in 10.0 mi SSE 20.7 mph - N/A   Clear
10:35 AM 37.8 °F 27.4 °F 25.9 °F 62% 30.24 in 10.0 mi SSE 20.7 mph 28.8 mph N/A   Clear
10:55 AM 39.2 °F 28.7 °F 26.2 °F 60% 30.24 in 10.0 mi South 23.0 mph 29.9 mph N/A   Clear
11:15 AM 39.9 °F 29.2 °F 26.6 °F 59% 30.23 in 10.0 mi SSE 25.3 mph - N/A   Clear
11:35 AM 41.0 °F 30.9 °F 27.3 °F 58% 30.22 in 10.0 mi SSE 24.2 mph 29.9 mph N/A   Clear
11:55 AM 42.3 °F 32.4 °F 27.3 °F 56% 30.21 in 10.0 mi SSE 25.3 mph 32.2 mph N/A   Clear
12:15 PM 43.7 °F 34.5 °F 26.8 °F 51% 30.20 in 10.0 mi South 24.2 mph 33.4 mph N/A   Clear
12:35 PM 44.8 °F 36.4 °F 27.7 °F 51% 30.20 in 10.0 mi South 21.9 mph 29.9 mph N/A   Clear
12:55 PM 45.1 °F 36.6 °F 28.2 °F 52% 30.20 in 10.0 mi South 23.0 mph 31.1 mph N/A   Clear
1:15 PM 46.2 °F 38.7 °F 28.6 °F 50% 30.19 in 10.0 mi South 19.6 mph 29.9 mph N/A   Clear
1:35 PM 47.5 °F - 29.1 °F 49% 30.18 in 10.0 mi South 25.3 mph 31.1 mph N/A   Clear
1:55 PM 48.4 °F - 29.3 °F 48% 30.17 in 10.0 mi South 20.7 mph 31.1 mph N/A   Clear
2:15 PM 49.5 °F - 28.8 °F 45% 30.17 in 10.0 mi South 25.3 mph 29.9 mph N/A   Clear
2:35 PM 50.5 °F - 28.2 °F 42% 30.16 in 10.0 mi South 23.0 mph 33.4 mph N/A   Clear
2:55 PM 52.2 °F - 28.9 °F 41% 30.15 in 10.0 mi SSW 24.2 mph 32.2 mph N/A   Clear
3:15 PM 52.7 °F - 29.1 °F 40% 30.14 in 10.0 mi South 21.9 mph 38.0 mph N/A   Clear
3:35 PM 53.1 °F - 29.7 °F 41% 30.13 in 10.0 mi SSW 23.0 mph 32.2 mph N/A   Clear
3:55 PM 53.6 °F - 29.1 °F 39% 30.12 in 10.0 mi South 24.2 mph 29.9 mph N/A   Clear
4:15 PM 54.3 °F - 29.7 °F 39% 30.11 in 10.0 mi South 26.5 mph 32.2 mph N/A   Clear
4:35 PM 55.0 °F - 28.9 °F 37% 30.11 in 10.0 mi South 23.0 mph 31.1 mph N/A   Clear
4:55 PM 55.0 °F - 29.3 °F 37% 30.10 in 10.0 mi South 24.2 mph 29.9 mph N/A   Clear
5:15 PM 55.4 °F - 30.6 °F 39% 30.10 in 10.0 mi South 20.7 mph 31.1 mph N/A   Clear
5:35 PM 55.6 °F - 29.3 °F 37% 30.09 in 10.0 mi South 21.9 mph 29.9 mph N/A   Clear
5:55 PM 55.0 °F - 28.9 °F 37% 30.09 in 10.0 mi South 25.3 mph 31.1 mph N/A   Clear
6:15 PM 54.7 °F - 29.7 °F 38% 30.08 in 10.0 mi South 20.7 mph 29.9 mph N/A   Clear
6:35 PM 54.1 °F - 30.4 °F 40% 30.08 in 10.0 mi South 17.3 mph 24.2 mph N/A   Clear
6:55 PM 54.0 °F - 31.1 °F 42% 30.08 in 10.0 mi South 16.1 mph 23.0 mph N/A   Clear
7:15 PM 52.7 °F - 31.1 °F 44% 30.08 in 10.0 mi South 16.1 mph - N/A   Clear
7:36 PM 50.9 °F - 30.9 °F 46% 30.07 in 10.0 mi South 16.1 mph - N/A   Clear
7:55 PM 49.1 °F - 30.9 °F 50% 30.08 in 10.0 mi South 13.8 mph 19.6 mph N/A   Clear
8:15 PM 47.5 °F - 30.7 °F 52% 30.07 in 10.0 mi South 15.0 mph 20.7 mph N/A   Clear
8:35 PM 45.9 °F 39.7 °F 30.7 °F 56% 30.07 in 10.0 mi South 13.8 mph - N/A   Clear
8:55 PM 45.3 °F 38.4 °F 30.4 °F 56% 30.08 in 10.0 mi South 16.1 mph 23.0 mph N/A   Clear
9:14 PM 43.7 °F 36.6 °F 30.7 °F 60% 30.08 in 10.0 mi South 15.0 mph - N/A   Clear
9:35 PM 43.2 °F 35.3 °F 30.6 °F 61% 30.07 in 10.0 mi South 17.3 mph 21.9 mph N/A   Clear
9:55 PM 43.9 °F 35.4 °F 29.5 °F 57% 30.07 in 10.0 mi South 20.7 mph - N/A   Clear
10:15 PM 44.1 °F 36.2 °F 29.1 °F 56% 30.07 in 10.0 mi South 18.4 mph 27.6 mph N/A   Clear
10:35 PM 42.8 °F 34.5 °F 29.3 °F 59% 30.07 in 10.0 mi South 18.4 mph 24.2 mph N/A   Clear
10:54 PM 42.3 °F 34.1 °F 29.3 °F 60% 30.07 in 10.0 mi South 17.3 mph 23.0 mph N/A   Clear
11:15 PM 42.4 °F 34.1 °F 28.9 °F 59% 30.06 in 10.0 mi South 18.4 mph 23.0 mph N/A   Clear
11:35 PM 42.1 °F 33.6 °F 28.4 °F 58% 30.06 in 10.0 mi South 18.4 mph 24.2 mph N/A   Clear
11:55 PM 41.9 °F 33.1 °F 28.4 °F 59% 30.06 in 10.0 mi South 19.6 mph 26.5 mph N/A   Clear